This demonstration page uses our WeatherBlox Daily Observations layout. Learn more.

Left ArrowRight Arrow

34.74481, -87.66753

Hourly Observations for July 25, 2020

Temp ( °F °C ) Dew Point ( °F °C ) Humidity (%) Winds ( mph kmh ) Pressure ( in mb ) Visibility ( mi km ) Precip ( " mm )
12:53 am 00:53 Clear 76 24.4 71 21.7 85 85 Calm 30.08 1019 10 16 0.00 0.00
1:53 am 01:53 Clear 75 23.9 71 21.7 88 88 Calm 30.07 1018 10 16 0.00 0.00
2:53 am 02:53 Clear 74 23.3 70 21.1 88 88 ESE 3 6 30.07 1018 10 16 0.00 0.00
3:53 am 03:53 Clear 74 23.3 70 21.1 88 88 Calm 30.08 1019 10 16 0.00 0.00
4:53 am 04:53 Clear 73 22.8 70 21.1 90 90 Calm 30.09 1019 10 16 0.00 0.00
5:53 am 05:53 Clear 73 22.8 70 21.1 90 90 Calm 30.11 1020 10 16 0.00 0.00
6:53 am 06:53 Sunny 75 23.9 71 21.7 88 88 Calm 30.12 1020 10 16 0.00 0.00
7:53 am 07:53 Sunny 78 25.6 71 21.7 79 79 Calm 30.12 1020 10 16 0.00 0.00
8:53 am 08:53 Sunny 82 27.8 71 21.7 69 69 E 3 6 30.14 1021 10 16 0.00 0.00
9:53 am 09:53 Sunny 87 30.6 71 21.7 59 59 Calm 30.14 1021 10 16 0.00 0.00
10:53 am 10:53 Cloudy 88 31.1 71 21.7 57 57 E 3 6 30.14 1021 10 16 0.00 0.00
11:53 am 11:53 Sunny 91 32.8 71 21.7 52 52 VRB 5 7 30.13 1020 10 16 0.00 0.00
12:53 pm 12:53 Mostly Sunny 92 33.3 69 20.6 47 47 VRB 5 7 30.11 1020 10 16 0.00 0.00
1:53 pm 13:53 Sunny 94 34.4 69 20.6 44 44 E 7 11 30.09 1019 10 16 0.00 0.00
2:53 pm 14:53 Mostly Sunny 93 33.9 68 20 44 44 SSE 5 7 30.06 1018 10 16 0.00 0.00
3:53 pm 15:53 Mostly Sunny 94 34.4 69 20.6 44 44 S 6 9 30.04 1017 10 16 0.00 0.00
4:53 pm 16:53 Sunny 91 32.8 71 21.7 52 52 Calm 30.04 1017 10 16 0.00 0.00
5:53 pm 17:53 Sunny 93 33.9 69 20.6 46 46 SSE 5 7 30.04 1017 10 16 0.00 0.00
6:53 pm 18:53 Mostly Sunny 89 31.7 75 23.9 63 63 Calm 30.04 1017 10 16 0.00 0.00
7:53 pm 19:53 Sunny 84 28.9 72 22.2 67 67 Calm 30.06 1018 10 16 0.00 0.00
8:53 pm 20:53 Clear 81 27.2 74 23.3 79 79 S 3 6 30.09 1019 10 16 0.00 0.00
9:53 pm 21:53 Cloudy 82 27.8 74 23.3 77 77 SE 7 11 30.11 1020 10 16 0.00 0.00
10:53 pm 22:53 Mostly Cloudy with Nearby Thunderstorms 81 27.2 71 21.7 72 72 ESE 15 24 30.13 1020 10 16 0.00 0.00
11:28 pm 23:28 Cloudy with Thunderstorms 79 26.1 70 21.1 74 74 ESE 10 17 30.13 1020 10 16 0.00 0.00
11:43 pm 23:43 Mostly Clear with Nearby Thunderstorms 79 26.1 71 21.7 77 77 ESE 6 9 30.12 1020 10 16 0.00 0.00
11:53 pm 23:53 Mostly Clear with Nearby Thunderstorms 78 25.6 72 22.2 82 82 ESE 6 9 30.12 1020 10 16 0.00 0.00

Powered by AerisWeather